Precipitable_Water
1.32 1.26 1.21 1.17 1.13 1.10 1.07 1.04 1.03 1.01 0.98 0.94 0.88 0.87 0.87 0.89 0.91 0.90 0.88 0.84 0.81 0.79 0.77 0.73 0.71 0.69 0.67 0.65 0.63 0.61 0.59 0.56 0.53 0.52 0.48 0.46 0.43 0.41 0.37 0.35 0.34 0.34
1.24 1.23 1.20 1.16 1.12 1.10 1.08 1.07 1.04 1.00 0.95 0.93 0.93 0.94 0.95 0.94 0.91 0.87 0.83 0.82 0.81 0.77 0.74 0.71 0.69 0.66 0.64 0.62 0.60 0.57 0.54 0.51 0.47 0.49 0.43 0.40 0.39 0.36 0.35 0.34 0.34 0.36
1.20 1.19 1.16 1.12 1.10 1.08 1.06 1.06 1.03 1.00 0.99 1.01 1.02 1.00 0.95 0.92 0.87 0.86 0.84 0.81 0.76 0.73 0.70 0.68 0.65 0.63 0.61 0.59 0.56 0.52 0.49 0.47 0.44 0.43 0.39 0.37 0.37 0.35 0.35 0.35 0.35 0.36
1.19 1.18 1.15 1.12 1.10 1.07 1.08 1.07 1.07 1.08 1.07 1.03 1.00 0.98 0.94 0.90 0.87 0.84 0.81 0.77 0.72 0.69 0.66 0.64 0.61 0.60 0.57 0.54 0.51 0.49 0.47 0.45 0.44 0.41 0.38 0.37 0.36 0.35 0.35 0.36 0.36 0.37
1.18 1.16 1.13 1.10 1.09 1.10 1.12 1.12 1.11 1.09 1.04 1.01 0.98 0.96 0.91 0.87 0.83 0.79 0.75 0.71 0.67 0.64 0.61 0.59 0.57 0.55 0.53 0.51 0.48 0.45 0.44 0.42 0.41 0.39 0.36 0.35 0.36 0.36 0.37 0.37 0.35 0.34
1.15 1.12 1.09 1.07 1.08 1.12 1.14 1.12 1.08 1.03 1.00 0.98 0.97 0.93 0.87 0.82 0.77 0.73 0.69 0.65 0.62 0.59 0.57 0.55 0.52 0.51 0.49 0.47 0.45 0.42 0.41 0.39 0.39 0.37 0.35 0.34 0.35 0.37 0.36 0.34 0.32 0.29
1.10 1.08 1.06 1.07 1.10 1.13 1.10 1.06 1.03 1.02 1.01 0.99 0.93 0.86 0.81 0.76 0.71 0.68 0.64 0.61 0.58 0.56 0.53 0.51 0.48 0.47 0.47 0.45 0.42 0.41 0.40 0.40 0.39 0.37 0.35 0.35 0.34 0.32 0.32 0.30 0.27 0.25
1.06 1.06 1.06 1.09 1.11 1.10 1.07 1.04 1.02 1.01 0.99 0.92 0.84 0.80 0.75 0.70 0.66 0.63 0.61 0.58 0.55 0.52 0.50 0.48 0.46 0.45 0.45 0.43 0.41 0.40 0.39 0.40 0.38 0.36 0.33 0.32 0.30 0.27 0.26 0.25 0.25 0.24
1.04 1.04 1.07 1.09 1.08 1.06 1.03 1.01 0.99 0.97 0.91 0.83 0.78 0.73 0.70 0.66 0.61 0.59 0.57 0.55 0.52 0.49 0.47 0.45 0.45 0.44 0.44 0.43 0.41 0.40 0.39 0.39 0.37 0.32 0.30 0.27 0.24 0.23 0.23 0.24 0.23 0.23
1.02 1.05 1.06 1.06 1.03 1.02 0.99 0.96 0.94 0.89 0.84 0.79 0.73 0.69 0.64 0.60 0.57 0.55 0.54 0.52 0.48 0.47 0.45 0.45 0.44 0.44 0.43 0.42 0.42 0.41 0.39 0.36 0.32 0.28 0.26 0.25 0.24 0.23 0.23 0.23 0.23 0.22
1.01 1.02 1.02 1.00 0.98 0.95 0.93 0.90 0.87 0.83 0.80 0.74 0.69 0.64 0.58 0.53 0.51 0.52 0.50 0.48 0.46 0.45 0.44 0.44 0.43 0.42 0.42 0.43 0.43 0.40 0.36 0.32 0.28 0.26 0.26 0.26 0.25 0.24 0.24 0.23 0.23 0.23
0.97 0.97 0.97 0.95 0.93 0.91 0.88 0.86 0.82 0.79 0.75 0.71 0.67 0.61 0.54 0.49 0.47 0.48 0.47 0.46 0.46 0.45 0.43 0.43 0.43 0.44 0.44 0.41 0.38 0.35 0.31 0.28 0.27 0.27 0.27 0.26 0.26 0.26 0.25 0.25 0.24 0.24
0.95 0.97 0.97 0.94 0.91 0.89 0.87 0.83 0.79 0.76 0.72 0.68 0.63 0.55 0.48 0.46 0.45 0.45 0.46 0.45 0.44 0.43 0.43 0.44 0.45 0.44 0.41 0.37 0.33 0.31 0.29 0.28 0.27 0.27 0.27 0.27 0.27 0.27 0.26 0.25 0.25 0.25
0.99 0.99 0.95 0.92 0.90 0.87 0.83 0.80 0.77 0.73 0.69 0.63 0.56 0.49 0.46 0.44 0.43 0.43 0.44 0.43 0.42 0.43 0.45 0.46 0.44 0.40 0.36 0.33 0.32 0.31 0.30 0.29 0.28 0.28 0.27 0.27 0.27 0.27 0.27 0.26 0.25 0.25
0.95 0.93 0.92 0.89 0.86 0.82 0.79 0.76 0.73 0.69 0.64 0.58 0.51 0.47 0.44 0.42 0.41 0.41 0.40 0.40 0.43 0.45 0.45 0.44 0.39 0.35 0.33 0.32 0.31 0.30 0.30 0.30 0.29 0.29 0.28 0.27 0.26 0.26 0.26 0.26 0.25 0.25
0.92 0.90 0.87 0.85 0.81 0.79 0.76 0.74 0.71 0.66 0.61 0.54 0.47 0.44 0.42 0.40 0.39 0.38 0.39 0.41 0.43 0.43 0.41 0.38 0.35 0.35 0.34 0.33 0.33 0.31 0.31 0.31 0.30 0.29 0.29 0.27 0.25 0.25 0.25 0.25 0.24 0.24
0.91 0.89 0.87 0.83 0.81 0.79 0.76 0.72 0.69 0.65 0.57 0.50 0.44 0.41 0.38 0.37 0.37 0.37 0.40 0.42 0.41 0.37 0.35 0.34 0.34 0.35 0.34 0.33 0.33 0.33 0.32 0.31 0.30 0.29 0.29 0.28 0.26 0.25 0.24 0.24 0.24 0.24
0.92 0.90 0.87 0.86 0.85 0.81 0.77 0.72 0.69 0.62 0.53 0.46 0.40 0.37 0.35 0.35 0.36 0.39 0.40 0.39 0.35 0.33 0.32 0.33 0.33 0.34 0.33 0.33 0.33 0.32 0.32 0.31 0.30 0.29 0.29 0.27 0.26 0.26 0.26 0.25 0.24 0.24
0.94 0.90 0.88 0.88 0.85 0.82 0.77 0.71 0.65 0.56 0.49 0.41 0.36 0.35 0.35 0.35 0.37 0.38 0.35 0.33 0.31 0.31 0.31 0.32 0.32 0.33 0.32 0.33 0.33 0.32 0.32 0.32 0.31 0.30 0.28 0.27 0.26 0.26 0.26 0.26 0.24 0.24
0.93 0.90 0.87 0.86 0.83 0.79 0.73 0.67 0.59 0.51 0.46 0.41 0.36 0.34 0.34 0.36 0.37 0.33 0.30 0.30 0.30 0.29 0.30 0.30 0.30 0.32 0.32 0.32 0.31 0.31 0.32 0.32 0.31 0.30 0.28 0.27 0.26 0.27 0.27 0.25 0.24 0.25
0.93 0.90 0.86 0.85 0.81 0.77 0.71 0.63 0.56 0.51 0.47 0.41 0.36 0.34 0.35 0.35 0.31 0.28 0.28 0.29 0.29 0.29 0.28 0.28 0.29 0.31 0.30 0.30 0.30 0.31 0.31 0.32 0.32 0.30 0.28 0.27 0.27 0.27 0.28 0.25 0.26 0.26
0.89 0.86 0.84 0.82 0.80 0.76 0.69 0.62 0.56 0.52 0.46 0.43 0.39 0.37 0.37 0.33 0.29 0.27 0.26 0.27 0.28 0.28 0.27 0.26 0.28 0.29 0.29 0.29 0.29 0.30 0.31 0.31 0.30 0.28 0.27 0.27 0.27 0.28 0.27 0.26 0.27 0.26
0.87 0.84 0.81 0.80 0.77 0.71 0.64 0.58 0.53 0.50 0.48 0.47 0.43 0.38 0.34 0.29 0.26 0.26 0.26 0.25 0.25 0.25 0.25 0.24 0.25 0.26 0.26 0.26 0.27 0.28 0.29 0.28 0.28 0.27 0.26 0.26 0.26 0.26 0.24 0.25 0.25 0.26
0.89 0.84 0.80 0.77 0.73 0.65 0.59 0.55 0.53 0.51 0.49 0.50 0.46 0.38 0.31 0.29 0.27 0.25 0.25 0.24 0.23 0.23 0.22 0.21 0.21 0.22 0.22 0.22 0.23 0.26 0.27 0.26 0.26 0.25 0.24 0.24 0.24 0.22 0.24 0.24 0.25 0.25
0.87 0.84 0.80 0.76 0.70 0.63 0.57 0.52 0.51 0.51 0.52 0.53 0.49 0.39 0.31 0.30 0.29 0.26 0.25 0.24 0.24 0.23 0.23 0.21 0.21 0.21 0.22 0.22 0.23 0.24 0.25 0.25 0.25 0.24 0.22 0.22 0.21 0.21 0.23 0.23 0.23 0.22
0.84 0.80 0.76 0.71 0.64 0.60 0.55 0.53 0.53 0.54 0.54 0.52 0.46 0.40 0.32 0.30 0.30 0.27 0.25 0.24 0.25 0.24 0.22 0.21 0.21 0.21 0.22 0.23 0.24 0.24 0.24 0.24 0.24 0.22 0.21 0.20 0.21 0.22 0.20 0.21 0.21 0.21
Wind_Speed
13 13 14 13 13 12 11 10 10 9 9 9 9 9 9 9 9 9 9 9 9 10 11 11 12 13 13 14 14 15 15 16 17 17 18 19 20 21 21 22 23 23
13 13 13 13 13 12 11 10 9 9 9 9 9 9 9 9 9 9 9 9 9 10 11 12 13 13 14 14 15 15 16 16 17 18 19 20 20 21 21 22 23 23
14 13 13 13 12 12 11 10 10 10 10 9 9 9 9 9 9 9 9 9 10 11 12 13 13 14 14 15 15 16 16 17 17 18 19 19 20 21 21 22 23 24
13 13 13 12 11 11 11 10 10 10 10 10 10 9 9 9 9 9 10 10 11 12 13 14 14 14 14 15 15 16 17 17 18 18 19 19 20 21 21 22 23 24
13 12 12 11 11 11 11 10 10 10 10 10 10 10 10 10 10 10 11 11 12 13 14 14 14 14 15 15 16 16 17 17 18 18 19 19 20 21 21 22 23 24
12 12 11 11 11 11 10 10 11 11 11 11 11 10 10 10 11 11 12 12 13 14 14 14 14 15 15 15 16 16 17 17 18 18 18 19 20 20 21 22 23 24
12 11 11 11 10 10 10 10 11 11 11 11 11 11 10 11 11 12 12 13 13 14 14 14 14 15 15 16 16 16 17 17 17 18 18 19 19 20 21 22 23 23
12 12 11 11 10 10 10 10 10 11 11 11 10 11 11 11 11 12 12 13 13 14 14 14 14 15 15 16 16 16 16 17 17 18 18 19 19 20 21 22 23 23
12 12 12 11 11 10 10 10 10 11 10 10 10 11 11 11 11 12 12 13 13 13 14 14 14 15 15 15 15 16 16 16 17 17 18 18 19 21 21 22 23 23
13 13 12 12 11 11 10 10 10 10 10 10 10 11 11 11 11 11 12 12 13 13 14 14 14 14 14 15 15 16 16 16 16 17 17 18 19 21 21 22 22 23
13 13 13 12 11 11 10 10 10 11 11 10 10 11 11 11 11 11 12 12 13 13 13 14 14 14 14 14 15 15 16 16 16 17 17 18 20 20 21 22 22 23
14 13 13 12 12 11 11 11 11 11 11 10 10 11 11 11 11 12 12 12 13 13 13 13 13 13 14 14 15 15 15 16 16 17 18 19 19 20 21 21 22 23
14 14 14 13 12 12 11 11 11 11 11 11 11 11 11 11 11 11 12 12 12 12 12 12 13 13 14 14 14 15 15 16 16 17 18 18 19 20 21 21 22 23
15 14 14 13 13 12 12 12 12 11 11 11 11 11 11 11 11 11 12 12 12 12 12 12 13 13 14 14 14 15 15 16 16 17 17 18 19 20 21 22 22 23
14 14 14 14 13 13 13 13 12 12 11 11 11 11 11 11 11 11 11 11 11 12 12 12 13 13 13 14 14 15 15 16 16 17 17 18 19 20 21 22 23 24
15 15 14 14 14 14 14 13 13 12 11 11 11 11 11 11 11 11 11 11 12 12 12 12 12 13 13 13 14 15 16 16 16 16 17 17 18 20 21 22 23 24
16 15 15 15 15 15 14 14 13 12 12 11 11 11 11 11 11 11 11 12 12 12 12 12 12 13 13 13 14 15 15 16 15 16 16 17 18 19 21 23 23 24
17 17 16 16 16 16 15 14 13 12 12 11 11 11 11 11 11 11 12 12 11 11 11 12 12 12 13 13 14 14 15 15 15 15 16 17 18 20 21 22 23 24
18 18 18 18 17 16 15 14 14 13 12 12 11 11 11 11 11 12 11 11 11 11 11 11 12 12 13 13 13 14 14 14 15 16 16 17 19 20 21 22 23 24
20 20 19 19 18 17 16 15 14 13 12 12 12 11 11 11 11 11 11 11 10 11 11 11 12 12 12 12 13 13 13 14 15 16 16 17 19 20 21 22 23 23
20 20 19 19 18 17 16 15 14 13 12 12 12 11 11 11 11 11 10 10 10 10 11 11 12 12 12 12 12 13 13 14 15 16 16 17 19 20 21 22 22 23
19 19 18 18 17 16 15 15 14 13 12 12 12 11 11 11 11 10 10 10 10 10 11 11 12 12 12 12 12 13 13 14 15 16 16 17 19 20 21 21 23 24
20 19 18 18 17 16 16 15 15 14 13 12 12 11 11 10 10 10 10 10 10 11 11 11 12 12 11 11 12 13 14 14 15 15 16 17 18 20 20 21 22 23
20 19 19 18 18 17 16 16 15 14 14 13 12 11 11 11 10 10 10 10 10 11 11 11 11 11 11 11 12 12 13 14 14 15 16 17 18 19 20 21 22 23
20 19 19 18 18 17 17 16 16 15 14 13 12 12 11 11 10 10 10 10 10 11 11 11 11 11 11 11 11 12 12 13 14 14 15 17 18 18 20 20 21 22
19 19 19 19 18 18 17 17 16 15 14 13 12 12 12 11 10 10 10 10 11 11 11 10 10 10 10 11 11 11 12 13 13 14 15 16 17 18 19 20 21 21
Wind_Direction
203 205 206 209 213 217 219 220 224 229 238 248 256 262 265 268 272 275 279 283 289 293 297 300 303 305 307 309 311 312 312 313 314 314 314 315 316 316 317 318 318 318
203 206 210 213 216 218 220 223 228 235 243 251 258 263 265 268 271 274 279 286 292 298 301 304 305 307 308 309 311 311 312 313 314 315 315 316 316 317 318 319 319 320
204 208 211 214 216 217 221 226 233 240 247 254 260 264 265 266 271 277 284 290 295 301 305 307 308 308 309 310 310 310 311 312 314 315 315 316 317 318 319 320 321 321
204 208 210 214 217 220 226 230 237 246 251 257 261 262 263 267 274 281 287 293 297 301 306 309 309 309 309 309 310 310 311 312 314 315 315 317 318 319 321 321 322 323
204 207 210 215 220 225 230 235 242 249 253 256 259 259 263 269 276 282 288 293 297 301 305 307 308 308 308 309 309 309 310 311 314 315 316 318 320 320 322 323 324 325
204 208 212 219 224 229 234 240 246 250 252 255 257 259 265 272 278 284 289 294 297 299 302 305 306 307 307 308 308 308 309 311 314 316 317 319 320 321 323 324 326 326
208 212 217 222 227 232 238 242 246 250 253 256 258 263 270 276 281 285 289 293 295 298 301 303 304 305 306 306 307 308 309 312 314 316 318 320 321 323 325 326 326 327
215 218 222 225 229 235 239 242 246 251 254 256 260 266 273 278 282 285 288 291 294 298 300 302 303 304 305 305 306 308 310 312 315 316 318 321 323 325 326 326 326 327
220 222 224 228 232 236 240 243 248 251 253 256 262 269 275 280 283 285 288 291 295 298 299 300 302 303 304 305 306 308 311 313 315 317 319 322 325 326 326 326 327 328
222 224 226 229 233 237 240 245 249 250 252 258 266 273 278 281 283 285 288 292 295 297 298 299 300 301 303 305 306 309 311 313 315 318 321 324 325 326 327 327 328 330
224 226 227 229 232 235 239 244 248 251 256 263 270 276 279 281 282 284 288 292 295 296 297 298 299 301 303 305 308 310 312 314 316 319 322 324 326 327 328 329 330 331
227 227 227 229 231 234 239 245 250 255 260 266 272 276 278 279 282 284 288 292 294 295 296 297 299 301 304 306 308 311 313 315 317 319 322 324 326 328 330 331 331 332
228 228 229 231 234 237 242 248 253 258 263 268 271 274 277 280 282 285 288 292 293 295 296 297 300 302 305 307 308 311 313 315 317 319 321 324 327 329 331 332 332 332
229 230 233 235 237 241 245 249 253 259 263 266 270 273 276 280 282 285 288 291 293 294 296 298 300 303 305 307 309 311 313 314 316 319 322 325 328 330 332 333 333 333
231 233 236 238 240 243 246 249 252 257 261 264 268 272 276 280 283 285 287 290 292 294 296 298 300 303 305 307 309 312 313 314 315 319 323 326 329 331 332 333 333 334
233 235 238 239 241 243 246 247 251 256 259 262 267 272 276 279 282 283 285 289 291 294 295 297 300 302 305 308 311 313 314 315 316 319 323 326 328 330 332 333 333 334
234 236 239 240 240 242 244 245 250 254 257 261 267 272 276 278 280 282 285 288 290 292 294 297 299 302 305 309 312 313 315 316 317 319 322 325 328 330 332 333 333 334
235 237 239 239 238 239 242 245 249 253 255 261 267 271 273 275 278 281 285 286 288 290 294 297 300 304 307 311 312 313 315 317 318 319 322 325 327 330 332 332 333 333
236 238 239 237 236 237 240 244 247 250 254 260 264 267 270 273 278 282 283 284 286 290 294 298 302 306 309 311 312 313 315 317 319 319 321 324 327 330 332 332 333 334
237 238 237 235 234 235 237 241 244 247 252 258 262 264 268 273 278 280 279 281 285 290 294 299 303 307 309 311 312 314 316 318 319 320 322 325 327 330 332 332 333 334
239 236 233 232 232 233 236 237 240 244 251 257 260 263 269 274 276 275 276 280 285 290 295 301 304 307 309 311 312 315 317 319 320 322 323 325 327 330 331 332 334 335
239 233 231 231 231 232 234 235 238 245 252 256 259 264 270 273 272 272 275 280 285 291 297 301 304 306 308 310 312 314 317 319 321 323 324 326 328 330 332 333 335 337
235 232 232 232 233 234 234 235 239 245 250 254 259 264 268 268 268 271 276 282 288 294 297 300 303 305 307 309 311 313 317 320 322 323 325 328 330 331 333 335 336 337
230 231 232 232 234 235 234 236 240 244 249 254 259 262 263 264 266 270 277 284 290 295 298 300 302 304 307 309 310 314 318 320 322 324 327 330 332 332 334 336 337 339
228 230 231 232 234 234 234 236 240 244 249 254 258 260 260 261 264 270 277 285 291 294 297 298 300 303 306 309 312 316 319 320 321 325 328 331 332 333 335 338 339 341
229 231 232 233 234 234 234 237 240 244 249 253 255 256 258 259 264 270 277 284 289 293 295 296 298 302 305 309 315 318 319 320 322 326 329 332 333 335 337 339 341 342